This is the latest recevied weather packets stored in our database for station/object K0SDS. If no packets are shown the sender has not sent any weather packets the latest 10 day(s).
| Time | Temp. | Humidity | Pressure | Rain* | Wind** | Luminosity | Snow |
|---|---|---|---|---|---|---|---|
| 1778258734 | 16.67° C | 70% | 1009.3 hPa | 0 mm | - | 163 W/m² | - |
| 1778258431 | 16.67° C | 70% | 1008.9 hPa | 0 mm | - | 169 W/m² | - |
| 1778258128 | 16.67° C | 71% | 1008.6 hPa | 0 mm | - | 131 W/m² | - |
| 1778257825 | 16.67° C | 70% | 1008.5 hPa | 0 mm | - | 150 W/m² | - |
| 1778257522 | 16.67° C | 72% | 1008.9 hPa | 0 mm | - | 157 W/m² | - |
| 1778257219 | 16.67° C | 73% | 1008.9 hPa | 0 mm | - | 127 W/m² | - |
| 1778256916 | 16.67° C | 71% | 1008.9 hPa | 0 mm | - | 100 W/m² | - |
| 1778256613 | 16.67° C | 71% | 1008.7 hPa | 0 mm | - | 89 W/m² | - |
| 1778256312 | 16.67° C | 71% | 1009.8 hPa | 0 mm | - | 71 W/m² | - |
| 1778256008 | 16.67° C | 71% | 1009.8 hPa | 0 mm | - | 80 W/m² | - |
| 1778255705 | 16.67° C | 71% | 1009.9 hPa | 0 mm | - | 77 W/m² | - |
| 1778255401 | 16.11° C | 70% | 1009.8 hPa | 0 mm | - | 74 W/m² | - |
| 1778255099 | 16.11° C | 70% | 1009.2 hPa | 0 mm | - | 96 W/m² | - |
| 1778254795 | 16.67° C | 71% | 1009.3 hPa | 0 mm | - | 99 W/m² | - |
| 1778254492 | 16.67° C | 69% | 1009.6 hPa | 0 mm | - | 97 W/m² | - |
| 1778254189 | 16.11° C | 69% | 1009 hPa | 0 mm | - | 106 W/m² | - |
| 1778253885 | 16.67° C | 70% | 1009 hPa | 0 mm | - | 121 W/m² | - |
| 1778253582 | 16.67° C | 69% | 1009.3 hPa | 0 mm | - | 142 W/m² | - |
| 1778253279 | 16.67° C | 69% | 1009.2 hPa | 0 mm | - | 161 W/m² | - |
| 1778252975 | 16.67° C | 70% | 1009.3 hPa | 0 mm | - | 167 W/m² | - |
| 1778252672 | 16.11° C | 70% | 1009.2 hPa | 0 mm | - | 160 W/m² | - |
| 1778252368 | 16.11° C | 69% | 1009.1 hPa | 0 mm | - | 132 W/m² | - |
| 1778252065 | 16.11° C | 70% | 1009.2 hPa | 0 mm | - | 113 W/m² | - |
| 1778251762 | 16.11° C | 70% | 1009.1 hPa | 0 mm | - | 107 W/m² | - |
| 1778251459 | 16.11° C | 70% | 1009.2 hPa | 0 mm | - | 98 W/m² | - |
* Rain latest hour (hover to see other rain measurements)
** Current wind speed in m/s (hover to see current wind gust speed)